Weather History for KABI - December, 2011

Change the Weather History Date:

Tuesday, December 13, 2011

  Actual Average Record
Temperature  
Mean Temperature 56 °F 45 °F  
Max Temperature 65 °F 57 °F 82 °F (1995)
Min Temperature 47 °F 34 °F 10 °F (1917)
Degree Days  
Heating Degree Days 9 20  
Month to date heating degree days 304 239  
Since 1 July heating degree days 691 672  
Cooling Degree Days 0 0  
Month to date cooling degree days 0 0  
Year to date cooling degree days 3517 2408  
Growing Degree Days 5 (Base 50)    
Moisture  
Dew Point 56 °F    
Average Humidity 97    
Maximum Humidity 100    
Minimum Humidity 93    
Precipitation  
Precipitation 0.03 in 0.04 in 1.00 in (1891)
Month to date precipitation 0.92 0.52  
Year to date precipitation 15.82 24.11  
Sea Level Pressure  
Sea Level Pressure 30.09 in    
Wind  
Wind Speed 17 mph (SE)    
Max Wind Speed 29 mph    
Max Gust Speed 36 mph    
Visibility 6 miles    
Events Rain    
T = Trace of Precipitation, MM = Missing Value Source: NWS Daily Summary

Daily Weather History Graph

Daily Weather History Graph

Search for Another Location

Airport or City:

Trip Planner

Search our weather history database for the weather conditions in past years. The results will help you decide how hot, cold, wet, or windy it might be!

Date:

Astronomy

Dec. 13, 2011 Rise Set
Actual Time 7:31 AM CST 5:34 PM CST
Civil Twilight 7:04 AM CST 6:01 PM CST
Nautical Twilight 6:33 AM CST 6:32 PM CST
Astronomical Twilight 6:03 AM CST 7:02 PM CST
Moon 8:44 PM CST (12/13) 9:47 AM CST (12/13)
Length of Visible Light 10h 57m
Length of Day
10h 03m
Waning Gibbous, 90% of the Moon is Illuminated
Dec 13
Waning Gibbous
Dec 17
Last Quarter
Dec 24
New
Jan 1
First Quarter
Jan 9
Full

Hourly Weather History & Observations

Time (CST) Temp. Dew Point Humidity Pressure Visibility Wind Dir Wind Speed Gust Speed Precip Events Conditions
12:52 AM 46.9 °F 46.0 °F 97% 30.16 in 7.0 mi SE 18.4 mph - N/A   Overcast
1:52 AM 48.0 °F 48.0 °F 100% 30.16 in 4.0 mi SSE 17.3 mph - N/A   Overcast
2:52 AM 48.9 °F 48.0 °F 97% 30.14 in 4.0 mi SE 19.6 mph 26.5 mph N/A   Overcast
3:52 AM 48.9 °F 48.9 °F 100% 30.13 in 3.0 mi SE 18.4 mph - N/A   Overcast
4:00 AM 48.2 °F 48.2 °F 100% 30.14 in 2.5 mi SE 17.3 mph - N/A   Overcast
4:16 AM 50.0 °F 50.0 °F 100% 30.14 in 3.0 mi SSE 15.0 mph - N/A   Overcast
4:52 AM 50.0 °F 50.0 °F 100% 30.11 in 5.0 mi SSE 17.3 mph - N/A   Overcast
5:52 AM 51.1 °F 51.1 °F 100% 30.12 in 4.0 mi SE 13.8 mph - N/A   Overcast
6:52 AM 52.0 °F 52.0 °F 100% 30.14 in 7.0 mi SE 10.4 mph - N/A   Overcast
7:36 AM 51.8 °F 51.8 °F 100% 30.15 in 2.5 mi SE 10.4 mph - N/A   Overcast
7:52 AM 52.0 °F 52.0 °F 100% 30.14 in 3.0 mi SE 10.4 mph - N/A   Overcast
8:11 AM 51.8 °F 51.8 °F 100% 30.15 in 2.0 mi SE 10.4 mph - N/A   Overcast
8:19 AM 51.8 °F 51.8 °F 100% 30.15 in 1.8 mi ESE 10.4 mph - N/A   Overcast
8:27 AM 51.8 °F 51.8 °F 100% 30.15 in 3.0 mi SE 11.5 mph - N/A   Overcast
8:52 AM 53.1 °F 53.1 °F 100% 30.14 in 2.5 mi SE 12.7 mph - N/A   Overcast
9:06 AM 53.6 °F 53.6 °F 100% 30.16 in 3.0 mi SE 13.8 mph - N/A   Overcast
9:27 AM 53.6 °F 53.6 °F 100% 30.17 in 2.5 mi SE 11.5 mph - 0.01 in   Overcast
9:38 AM 55.4 °F 55.4 °F 100% 30.17 in 3.0 mi SE 11.5 mph - 0.01 in   Overcast
9:52 AM 55.0 °F 55.0 °F 100% 30.16 in 5.0 mi SE 10.4 mph - 0.01 in   Overcast
10:10 AM 55.4 °F 55.4 °F 100% 30.17 in 2.0 mi SE 12.7 mph - N/A   Overcast
10:40 AM 57.2 °F 57.2 °F 100% 30.18 in 4.0 mi SE 12.7 mph - 0.01 in   Overcast
10:52 AM 57.0 °F 57.0 °F 100% 30.16 in 10.0 mi SE 15.0 mph - 0.01 in   Overcast
11:25 AM 57.2 °F 57.2 °F 100% 30.16 in 2.5 mi SSE 15.0 mph 20.7 mph N/A   Overcast
11:48 AM 57.2 °F 57.2 °F 100% 30.15 in 8.0 mi SSE 13.8 mph - N/A   Overcast
11:52 AM 57.9 °F 57.9 °F 100% 30.12 in 10.0 mi SSE 15.0 mph - N/A   Overcast
12:24 PM 57.2 °F 57.2 °F 100% 30.13 in 3.0 mi SSE 12.7 mph - 0.01 in   Overcast
12:52 PM 59.0 °F 57.9 °F 96% 30.09 in 10.0 mi SSE 15.0 mph - 0.01 in   Overcast
1:52 PM 59.0 °F 59.0 °F 100% 30.06 in 8.0 mi SSE 13.8 mph - 0.00 in   Overcast
2:52 PM 59.0 °F 59.0 °F 100% 30.04 in 3.0 mi SSE 16.1 mph - N/A   Overcast
3:09 PM 59.0 °F 59.0 °F 100% 30.07 in 4.0 mi SSE 15.0 mph - 0.00 in Rain Light Rain
3:52 PM 60.1 °F 60.1 °F 100% 30.02 in 5.0 mi SE 19.6 mph 27.6 mph 0.00 in   Overcast
4:27 PM 60.8 °F 60.8 °F 100% 30.04 in 6.0 mi SSE 18.4 mph 27.6 mph N/A   Overcast
4:52 PM 61.0 °F 61.0 °F 100% 30.00 in 6.0 mi SSE 19.6 mph - N/A   Overcast
5:52 PM 61.0 °F 61.0 °F 100% 29.99 in 9.0 mi SSE 23.0 mph - N/A   Overcast
6:52 PM 62.1 °F 61.0 °F 96% 29.97 in 9.0 mi SSE 25.3 mph 31.1 mph N/A   Overcast
7:52 PM 62.1 °F 61.0 °F 96% 29.98 in 9.0 mi SSE 16.1 mph 27.6 mph N/A   Overcast
8:52 PM 63.0 °F 62.1 °F 97% 29.97 in 10.0 mi SSE 21.9 mph 28.8 mph N/A   Overcast
9:05 PM 64.4 °F 62.6 °F 94% 30.01 in 10.0 mi SSE 19.6 mph 28.8 mph N/A   Overcast
9:52 PM 64.0 °F 62.1 °F 93% 29.97 in 9.0 mi SSE 17.3 mph 25.3 mph N/A   Overcast
10:44 PM 64.4 °F 62.6 °F 94% 30.00 in 10.0 mi SSE 17.3 mph 25.3 mph N/A   Overcast
10:52 PM 64.9 °F 63.0 °F 93% 29.96 in 10.0 mi SSE 17.3 mph 25.3 mph N/A   Overcast
11:52 PM 64.9 °F 63.0 °F 93% 29.96 in 10.0 mi SSE 15.0 mph 23.0 mph N/A   Overcast